NOAA NWS Hourly Roundups by Site

Regional Weather Roundup for Seattle, WA

To Select Another Site Choose from List

Select Site:  

000
ASUS46 KSEW 060420
RWRWA

WASHINGTON REGIONAL WEATHER ROUNDUP
NATIONAL WEATHER SERVICE SEATTLE WA
900 PM PDT WED OCT 05 2022

NOTE:"FAIR" INDICATES FEW OR NO CLOUDS BELOW 12,000 FEET WITH NO
SIGNIFICANT WEATHER AND/OR OBSTRUCTIONS TO VISIBILITY.

WAZ507-509-555>559-060500-
SEATTLE, TACOMA, EVERETT, AND VICINITY

CITY           SKY/WX    TMP DP  RH WIND       PRES   REMARKS
EVERETT        CLEAR     56  52  86 N3        30.18S
BOEING FIELD   CLEAR     58  55  90 CALM      30.16S
RENTON         PTCLDY    57  54  89 CALM      30.16S
SEATAC AIRPORT PTCLDY    57  53  86 N5        30.17S FOG
JBLM-MCCHORD   CLEAR     50  50 100 CALM      30.16S FOG
PUYALLUP       DRIZZLE   52  52 100 CALM      30.17S
BREMERTON      CLEAR     50  50 100 CALM      30.18R
JBLM-FT LEWIS  CLEAR     53  51  92 CALM      30.14S
TACOMA NARROWS CLEAR     56  54  93 CALM      30.17S
$$

WAZ001-503-506-510-514-515-060500-
NORTH INTERIOR

CITY           SKY/WX    TMP DP  RH WIND       PRES   REMARKS
BELLINGHAM     CLEAR     54  53  97 CALM      30.16S
FRIDAY HARBOR  CLEAR     52  50  93 CALM      30.17S
EASTSOUND      CLEAR     54  52  94 CALM      30.16S
PORT ANGELES   FOG       52  50  93 CALM      30.19S VSB 3/4
EDIZ HOOK      MOCLDY    50  50 100 NW7       30.18S
PORT TOWNSEND  CLOUDY    50  50 100 CALM      30.16S
NAS WHIDBEY    MOCLDY    52  50  93 CALM      30.21S
ARLINGTON      CLEAR     56  53  90 CALM      30.18S
BURLINGTON     CLEAR     54  54 100 CALM      30.17S
$$

WAZ020-022-039-040-504-511-512-060500-
SOUTHWEST INTERIOR

CITY           SKY/WX    TMP DP  RH WIND       PRES   REMARKS
SHELTON        CLEAR     53  51  93 CALM      30.15R
OLYMPIA        FOG       51  51 100 CALM      30.16F VSB 3/4
CHEHALIS       FAIR     N/A N/A N/A CALM      30.16R
KELSO          MOCLDY    60  56  86 N7        30.14R
VANCOUVER      CLEAR     63  55  75 CALM      30.11S
SCAPPOOSE, OR  CLEAR     63  57  81 N8        30.09S
PORTLAND, OR   PTCLDY    63  56  78 CALM      30.10S
$$

WAZ021-516-517-060500-
WASHINGTON COAST

CITY           SKY/WX    TMP DP  RH WIND       PRES   REMARKS
FORKS          CLOUDY    56  56 100 N3        30.16R
HOQUIAM        CLOUDY    60  57  89 CALM      30.16R FOG
ASTORIA, OR    CLOUDY    58  57  97 NW7       30.12S
$$

WAZ019-023-024-040-567>569-060500-
CASCADE MOUNTAINS AND COLUMBIA GORGE

CITY           SKY/WX    TMP DP  RH WIND       PRES   REMARKS
STAMPEDE PASS  CLEAR     61  42  49 CALM      30.25S
TROUTDALE, OR  CLEAR     60  55  83 CALM      30.10S
HOOD RIVER, OR CLEAR     55  54  94 CALM      30.11R
THE DALLES, OR CLEAR     67  57  70 NW12      30.08R
$$

WAZ026-027-041>044-520-521-060500-
EAST SLOPES

CITY           SKY/WX    TMP DP  RH WIND       PRES   REMARKS
OMAK           CLEAR     65  45  48 NW6       30.15R
WENATCHEE      CLEAR     68  45  43 W3        30.13R HAZE
ELLENSBURG     CLEAR     62  44  51 CALM      30.16R
YAKIMA         CLEAR     61  47  59 W7        30.13R
SUNNYSIDE ARPT CLEAR     56  53  89 CALM      30.10S
YAKIMA TC      FAIR      65  40  40 CALM      30.10R
$$

WAZ028-034-035-060500-
COLUMBIA BASIN

CITY           SKY/WX    TMP DP  RH WIND       PRES   REMARKS
EPHRATA        CLEAR     70  37  29 NW5       30.12R
MOSES LAKE     CLEAR     64  42  44 CALM      30.12R
PASCO          CLEAR     63  55  75 N5        30.08R
RICHLAND ARPT  CLEAR     65  50  58 NW3       30.08R
HERMISTON, OR  CLEAR     61  50  67 S5        30.08R
$$

WAZ036>038-060500-
NORTHEAST WASHINGTON

CITY           SKY/WX    TMP DP  RH WIND       PRES   REMARKS
SPOKANE GEIGER PTCLDY    64  41  42 CALM      30.18R
SPOKANE FELTS  CLEAR     59  46  62 E3        30.18R
FAIRCHILD AFB  CLEAR     63  40  43 CALM      30.17R
COEURDALENE,ID CLEAR     55  49  80 CALM      30.20R
DEER PARK      CLEAR     53  38  56 NE5       30.19R
$$

WAZ029>033-060500-
SOUTHEAST WASHINGTON

CITY           SKY/WX    TMP DP  RH WIND       PRES   REMARKS
PULLMAN        CLEAR     57  45  64 CALM      30.19S
LEWISTON, ID   CLEAR     65  45  48 CALM      30.13R
WALLA WALLA    CLEAR     64  48  56 SE7       30.09R
PENDLETON, OR  CLEAR     66  46  48 S5        30.11S
$$


 

View Past Reports for Seattle, WA.

Products Courtesy of NOAA-NWS
NWS Information Parsing Script by Ken True at Saratoga Weather - Script by SE Lincoln Weather.